Location: Spears Village
(29.9615°N, 95.2834°W)
Time: 22:51:35
(UTC+00:00)

Hubble Space Telescope - Visible Passes

Search period start: 20 January 2020 00:00
Search period end: 30 January 2020 00:00
Orbit: 536 x 540 km, 28.5° (Epoch: 20 January)

Date Brightness Start Highest point End Pass type
(mag) Time Alt. Az. Time Alt. Az. Time Alt. Az.
26 Jan 3.5 12:38:22 10° SSW 12:40:57 16° SSE 12:43:32 10° ESE visible
27 Jan 3.2 12:27:11 10° SSW 12:30:15 20° SSE 12:33:19 10° ESE visible
28 Jan 2.8 12:16:10 10° SW 12:19:34 25° SSE 12:22:58 10° ESE visible
29 Jan 2.4 12:05:15 10° SW 12:08:53 30° SSE 12:12:31 10° E visible
